Regional Weather Roundup
Issued by NWS

Home | Current Version | Previous Version | Graphics & Text | Print | Product List | Glossary On
Versions: 1 2 3 4 5 6 7 8 9 10 11 12 13 14 15 16 17 18 19 20 21 22 23 24 25 26 27 28 29 30 31 32 33 34 35 36 37 38 39 40 41 42 43 44 45 46 47 48 49 50
000
ASUS43 KOAX 300302
RWRNE

WEATHER ROUNDUP FOR NEBRASKA
NATIONAL WEATHER SERVICE OMAHA NE
1000 PM CDT SUN MAR 29 2015

NOTES: SATELLITE DATA IS BEING USED TO AUGMENT CLOUD COVER ABOVE
       12000 FEET.
       "FAIR" INDICATES FEW OR NO CLOUDS BELOW 12,000 FEET WITH NO
       SIGNIFICANT WEATHER AND/OR OBSTRUCTIONS TO VISIBILITY.

  * THESE STATIONS DO NOT REPORT WEATHER SUCH AS RAIN...SNOW OR FOG.

NEZ001>004-019>022-054>056-300400-
NEBRASKA PANHANDLE

CITY           SKY/WX    TMP DP  RH WIND       PRES   REMARKS
SCOTTSBLUFF    PTCLDY    48  24  39 SE7       30.12S
ALLIANCE       CLOUDY    45  28  51 S7        30.11S
CHADRON        CLOUDY    49  27  42 CALM      30.07R
SIDNEY         CLEAR     40  24  53 S8        30.16R WCI  34
$$

NEZ057>060-069>072-079>082-300400-
SOUTHWEST NEBRASKA

CITY           SKY/WX    TMP DP  RH WIND       PRES   REMARKS
NORTH PLATTE   CLEAR     41  21  44 SE6       30.14S
IMPERIAL       CLEAR     46  17  31 S6        30.16S
MCCOOK         CLEAR     49  17  28 SE6       30.17R
$$

NEZ005>010-023>029-035>040-094-300400-
NORTH CENTRAL NEBRASKA

CITY           SKY/WX    TMP DP  RH WIND       PRES   REMARKS
VALENTINE      CLOUDY    42  22  44 SW6       30.09F
BROKEN BOW     MOCLDY    34  15  46 CALM      30.15R
ORD            CLEAR     37  17  44 S6        30.13S HAZE    WCI  32
$$

NEZ041-046>049-061>064-073>077-083>087-300400-
SOUTH CENTRAL NEBRASKA

CITY           SKY/WX    TMP DP  RH WIND       PRES   REMARKS
GRAND ISLAND   CLEAR     41  18  39 SW5       30.17R
HASTINGS       CLEAR     42  16  34 W3        30.16R
KEARNEY *      CLEAR     43  10  26 CALM      30.17S
$$

NEZ011>018-030>034-042>045-300400-
NORTHEAST NEBRASKA

CITY           SKY/WX    TMP DP  RH WIND       PRES   REMARKS
NORFOLK        CLEAR     40  24  53 SW8       30.11S WCI  34
COLUMBUS *     CLEAR     37  18  44 CALM      30.15S
TEKAMAH        CLEAR     42  22  44 W24       30.11R
$$

NEZ050>053-065>068-078-088>093-300400-
SOUTHEAST NEBRASKA

CITY           SKY/WX    TMP DP  RH WIND       PRES   REMARKS
LINCOLN        CLEAR     42  25  50 CALM      30.16R
OMAHA EPPLEY   CLEAR     47  24  40 CALM      30.12R
FALLS CITY     CLEAR     48  27  44 W7        30.14R
$$

NEZ044-045-051>053-067-300400-
OMAHA AREA

CITY           SKY/WX    TMP DP  RH WIND       PRES   REMARKS
OMAHA EPPLEY   CLEAR     47  24  40 CALM      30.12R
OFFUTT AFB     CLEAR     42  22  46 SW3       30.12R
$$



USA.gov is the U.S. government's official web portal to all federal, state and local government web resources and services.